Flag for USA Past Weather in Springfield, Illinois, USA — Yesterday and Last 2 Weeks

Now
63 °F

Clear.


Feels Like: 63 °F
Forecast: 63 / 78 °F
Wind: 6 mph from East

Location: Capital Airport

Current Time: May 28, 2017 at 3:49:14 am

Latest Report: May 28, 2017 at 2:52 am


Visibility: 10 mi

Pressure: 29.72 "Hg

Humidity: 93%

Dew Point: 61 °F

Location of SpringfieldLocation

Past Weather in Springfield — Graph

°F

Springfield Temperature Yesterday

Maximum temperature yesterday: 81 °F (at 2:52 pm)
Minimum temperature yesterday: 62 °F (at 3:57 am)
Average temperature yesterday: 69 °F

High & Low Weather Summary for the Past Weeks

 TemperatureHumidityPressure
High90 °F (May 18, 2:52 pm)100% (May 19, 5:52 am)30.17 "Hg (May 19, 5:52 am)
Low49 °F (May 22, 2:52 am)29% (May 13, 5:52 pm)29.53 "Hg (May 24, 3:52 pm)
Average67 °F75%29.84 "Hg
* Reported May 13 1:52 am — May 28 1:52 am, Springfield. Weather by CustomWeather, © 2017

Note: Actual official high and low records may vary slightly from our data, if they occured in-between our weather recording intervals... More about our weather records

Advertising

Springfield Weather History for the Previous 24 Hours

Scroll right to see more
 ConditionsComfort  
Time TempWeatherWind HumidityBarometerVisibility
1:52 am
Sun, May 28
63 °FClear.No wind93%29.75 "Hg10 mi
12:52 am65 °FClear.No wind91%29.77 "Hg10 mi
11:52 pm
Sat, May 27
68 °FClear.3 mph82%29.77 "Hg10 mi
10:52 pm69 °FClear.6 mph76%29.76 "Hg10 mi
9:52 pm69 °FClear.6 mph76%29.77 "Hg10 mi
8:52 pm72 °FClear.7 mph71%29.77 "Hg10 mi
7:52 pm75 °FSunny.8 mph66%29.70 "Hg10 mi
6:52 pm78 °FPartly sunny.12 mph60%29.80 "Hg10 mi
5:52 pm78 °FSunny.3 mph60%29.83 "Hg10 mi
4:52 pm80 °FSunny.6 mph56%29.81 "Hg10 mi
3:52 pm80 °FSunny.3 mph56%29.84 "Hg10 mi
2:52 pm81 °FSunny.6 mph53%29.84 "Hg10 mi
1:52 pm80 °FSunny.7 mph58%29.85 "Hg10 mi
12:52 pm79 °FSunny.9 mph62%29.88 "Hg10 mi
11:52 am76 °FScattered clouds.7 mph67%29.90 "Hg10 mi
10:52 am75 °FPassing clouds.5 mph71%29.89 "Hg10 mi
9:52 am69 °FOvercast.6 mph81%29.90 "Hg10 mi
9:43 am69 °FOvercast.5 mph81%29.90 "Hg10 mi
8:52 am64 °FFog.7 mph94%29.89 "Hg6 mi
8:38 am63 °FFog.9 mph97%29.91 "Hg4 mi
7:52 am62 °FFog.10 mph100%29.88 "Hg2 mi
7:37 am62 °FFog.12 mph96%29.90 "Hg1 mi
7:01 am62 °FFog.9 mph100%29.90 "Hg2 mi
6:29 am62 °FFog.6 mph100%29.89 "Hg1 mi
6:07 am62 °FFog.7 mph100%29.89 "Hg0 mi
5:52 am62 °FFog.10 mph100%29.86 "Hg0 mi
5:14 am63 °FFog.6 mph100%29.87 "Hg0 mi
5:05 am63 °FFog.6 mph100%29.87 "Hg1 mi
4:52 am63 °FFog.5 mph97%29.85 "Hg3 mi
4:20 am62 °FFog.6 mph96%29.85 "Hg3 mi
3:57 am62 °FFog.No wind96%29.86 "Hg0 mi
3:36 am63 °FFog.No wind97%29.86 "Hg1 mi
Weather by CustomWeather, © 2017

See weather overviewHow to use our weather pages